Regional Weather Roundup
Issued by NWS Upton, NY

Current Version | Previous Version | Graphics & Text | Print | Product List | Glossary Off
Versions: 1 2 3 4 5 6 7 8 9 10 11 12 13 14 15 16 17 18 19 20 21 22 23 24 25 26 27 28 29 30 31 32 33 34 35 36 37 38 39 40 41 42 43 44 45 46 47 48 49 50

000
ASUS41 KOKX 300905
RWROKX

REGIONAL WEATHER ROUNDUP
NATIONAL WEATHER SERVICE NEW YORK NY
500 AM EDT WED JUL 30 2014

NOTE: "FAIR" INDICATES FEW OR NO CLOUDS BELOW 12,000 FEET WITH NO
SIGNIFICANT WEATHER AND/OR OBSTRUCTIONS TO VISIBILITY.

NYZ071-072-176-178-NJZ106-104-301000-
NEW YORK CITY METRO AREA


CITY           SKY/WX    TMP DP  RH WIND       PRES   REMARKS
CENTRAL PARK   CLEAR     64  53  67 VRB5      30.01R
LAGUARDIA APRT MOCLDY    67  55  65 NW9       29.97R
KENNEDY INTL   CLEAR     66  54  65 CALM      29.98R
NEWARK/LIBERTY MOCLDY    64  53  67 NW7       29.99R
BRNX BOT. GARD   N/A     63  54  72 NW3       29.99R
TETERBORO      MOCLDY    62  54  74 CALM      29.98R
$$

NYZ177-179-078>081-301000-
LONG ISLAND NEW YORK

CITY           SKY/WX    TMP DP  RH WIND       PRES   REMARKS
FARMINGDALE    CLOUDY    63  55  75 CALM      29.98R
ISLIP          PTCLDY    63  54  72 CALM      29.96R
SHIRLEY        CLOUDY    58  54  86 CALM      29.98R
WESTHAMPTON    CLOUDY    56  51  84 CALM      29.99R
MONTAUK POINT    N/A     62  58  86 CALM      29.98R
$$

NYZ052-065-067-301000-
HUDSON VALLEY

CITY           SKY/WX    TMP DP  RH WIND       PRES   REMARKS
WHITE PLAINS   CLEAR     57  53  86 N3        29.98R
NEWBURGH       CLOUDY    59  57  94 W7        30.00
MONTGOMERY     CLOUDY    58  55  90 SW3       29.99R
POUGHKEEPSIE   CLOUDY    61  58  90 CALM      29.98R
ALBANY         CLOUDY    61  53  75 CALM      29.99R
$$

NJZ001-105-106-008-010-013-015-019>022-104-301000-
NEW JERSEY

CITY           SKY/WX    TMP DP  RH WIND       PRES   REMARKS
NEWARK/LIBERTY MOCLDY    64  53  67 NW7       29.99R
TETERBORO      MOCLDY    62  54  74 CALM      29.98R
CALDWELL       PTCLDY    56  53  90 CALM      30.00R
MORRISTOWN     CLEAR     54  50  87 CALM      30.00R
SOMERVILLE     CLEAR     53  51  93 CALM      29.99R
LINDEN         PTSUNNY   63  55  74 NW5       30.01R
SUSSEX         CLEAR     55  51  86 CALM      30.01R
ANDOVER          N/A     50  49  96 CALM      30.01R
TRENTON        MOCLDY    59  55  87 NW5       29.99R
MILLVILLE      CLEAR     56  54  93 CALM      30.00R
ATLANTIC CITY  PTCLDY    61  58  90 NW3       29.98R
WRIGHTSTOWN    PTCLDY    59  55  84 NW3       29.98R
TOMS RIVER     CLOUDY    57  54  88 CALM      29.99R
BELMAR         MOCLDY    63  54  72 NW5       29.99R
$$

PAZ047>061-062-071-301000-
EASTERN PENNSYLVANIA

CITY           SKY/WX    TMP DP  RH WIND       PRES   REMARKS
PHILADELPHIA   PTCLDY    63  52  67 N7        30.00R
ALLENTOWN      CLEAR     53  50  89 W3        30.01S
SCRANTON       CLOUDY    54  50  86 CALM      30.01S
$$

CTZ002-004>006-009-010-012-RIZ004-006-007-MAZ004-011-015-301000-
SOUTHERN NEW ENGLAND
 IN CT

CITY           SKY/WX    TMP DP  RH WIND       PRES   REMARKS
BRADLEY INTL   MOCLDY    62  55  77 CALM      29.98R
HARTFORD       CLOUDY    62  57  83 CALM      29.98R
DANBURY        PTCLDY    55  52  89 SW3       30.00R
WTRBRY/OXFORD  CLEAR     55  52  88 CALM      30.00R
BRIDGEPORT     CLOUDY    61  57  87 CALM      29.98R
MERIDEN        CLEAR     57  55  93 CALM      29.98R
NEW HAVEN      MOCLDY    60  55  83 CALM      29.98R
CHESTER        FAIR      57  54  88 CALM      29.99R
GROTON         CLEAR     57  56  96 CALM      29.97R
WILLIMANTIC    CLEAR     57  55  93 CALM      29.99R

 IN RI

CITY           SKY/WX    TMP DP  RH WIND       PRES   REMARKS
PROVIDENCE     CLEAR     62  57  83 CALM      29.97S
BLOCK ISLAND   CLEAR     61  57  88 CALM      29.97R
WESTERLY       CLEAR     57  55  93 CALM      29.98R

 IN MA

CITY           SKY/WX    TMP DP  RH WIND       PRES   REMARKS
BOSTON         PTCLDY    64  56  75 W5        29.97R
WORCESTER      CLOUDY    59  52  77 NW7       29.99R
WESTFIELD      MOCLDY    56  53  90 CALM      29.98R
PROVINCETOWN   CLEAR     57  54  88 CALM      29.97R
NANTUCKET      PTCLDY    61  60  97 CALM      29.97R
$$

ANZ330-335-338-340-345-350-353-355-301000-
COASTAL MARINE OBSERVATIONS


STATION/POSITION TIME  SKY/WX   TEMP    WIND        PRES    VSBY  WAVE
                                AIR SEA DIR/SP/G                  HT/PER
                 (UTC)          (F)     (DEG/KT/KT) (MB)    (MI)  (FT/S)
NY HARB ENTRANCE NOT AVBL
4S FIRE IS       NOT AVBL
23SW MTP         0900            67 68              1014.3          3/ 8
HUDSON CANYON    0900            71 74  290/  4/  6 1014.6          3/ 8
EXECUTION ROCKS  0900            66 70  330/  8/ 12   N/A
WESTERN LI SOUND 0900            65     320/  6/  8   N/A           0
CENTRAL LI SOUND 0800            68 71   20/  6/  8   N/A           0
EASTERN LI SOUND 0800            65 67  350/  4/  6   N/A
ROBBINS REEF     0900            66     310/  7/  9   N/A
$$


>>>>>>>>>>>>>>>>>>>>>>>>>>>> KEY <<<<<<<<<<<<<<<<<<<<<<<<<<<
>                                                          <
>     SKY/WX - SKY CONDITION/PRESENT WEATHER               <
>     TMP    - TEMPERATURE IN FAHRENHEIT                   <
>     DP     - DEWPOINT IN FAHRENHEIT                      <
>     RH     - RELATIVE HUMIDITY IN PERCENT                <
>     WIND   - DIRECTION AND SPEED IN MPH                  <
>     PRES   - MEAN SEA LEVEL PRESSURE IN INCHES OF HG     <
>     WCI    - WIND CHILL INDEX                            <
>     VSB    - VISIBILITY IN MILES                         <
>     HX     - HEAT INDEX                                  <
>     TC     - TEMPERATURE IN CELSIUS                      <
>     VRB    - VARIABLE WIND DIRECTION                     <
>                                                          <
>>>>>>>>>>>>>>>>>>>>>>>>>>>> KEY <<<<<<<<<<<<<<<<<<<<<<<<<<<




USA.gov is the U.S. government's official web portal to all federal, state and local government web resources and services.